Time,TemperatureF,DewpointF,PressureIn,WindDirection,WindDirectionDegrees,WindSpeedMPH,WindSpeedGustMPH,Humidity,HourlyPrecipIn,Conditions,Clouds,dailyrainin,SoftwareType,DateUTC
2013-02-03 00:00:00,38.7,36.8,30.08,West,271,3.0,9.0,93,0.00,,---,0.00,VWS V14.00,2013-02-03 05:00:00,
2013-02-03 00:01:00,38.7,36.8,30.08,WSW,237,10.0,16.0,93,0.00,,---,0.00,VWS V14.00,2013-02-03 05:01:00,
2013-02-03 00:02:00,38.7,36.8,30.08,WSW,241,6.0,10.0,93,0.00,,---,0.00,VWS V14.00,2013-02-03 05:02:00,
2013-02-03 00:07:00,38.7,36.8,30.08,WSW,254,8.0,18.0,93,0.00,,---,0.00,VWS V14.00,2013-02-03 05:07:00,
2013-02-03 00:12:00,38.7,36.8,30.07,West,259,9.0,15.0,93,0.00,,---,0.00,VWS V14.00,2013-02-03 05:12:00,
2013-02-03 00:17:00,38.7,36.8,30.08,WNW,286,2.0,8.0,93,0.00,,---,0.00,VWS V14.00,2013-02-03 05:17:00,
2013-02-03 00:22:00,38.7,36.8,30.07,WSW,250,12.0,14.0,93,0.00,,---,0.00,VWS V14.00,2013-02-03 05:22:00,
2013-02-03 00:27:00,38.7,36.8,30.07,WSW,241,2.0,9.0,93,0.00,,---,0.00,VWS V14.00,2013-02-03 05:27:00,
2013-02-03 00:32:00,38.6,36.8,30.07,West,261,10.0,10.0,93,0.00,,---,0.00,VWS V14.00,2013-02-03 05:32:00,
2013-02-03 00:37:00,38.6,36.8,30.07,West,279,13.0,14.0,93,0.00,,---,0.00,VWS V14.00,2013-02-03 05:37:00,
2013-02-03 00:42:00,38.6,36.8,30.07,West,267,2.0,4.0,93,0.00,,---,0.00,VWS V14.00,2013-02-03 05:42:00,
2013-02-03 00:47:00,38.6,36.8,30.07,West,261,3.0,5.0,93,0.00,,---,0.00,VWS V14.00,2013-02-03 05:47:00,
2013-02-03 00:52:00,38.6,36.8,30.07,West,271,2.0,3.0,93,0.00,,---,0.00,VWS V14.00,2013-02-03 05:52:00,
2013-02-03 00:57:00,38.5,36.7,30.06,NNW,343,3.0,8.0,93,0.00,,---,0.00,VWS V14.00,2013-02-03 05:57:00,
2013-02-03 01:02:00,38.5,36.7,30.06,West,263,7.0,10.0,93,0.00,,---,0.00,VWS V14.00,2013-02-03 06:02:00,
2013-02-03 01:07:00,38.4,36.3,30.06,NW,319,4.0,6.0,92,0.00,,---,0.00,VWS V14.00,2013-02-03 06:07:00,
2013-02-03 01:12:00,38.4,36.3,30.06,WSW,246,0.0,2.0,92,0.00,,---,0.00,VWS V14.00,2013-02-03 06:12:00,
2013-02-03 01:17:00,38.3,36.2,30.06,West,263,0.0,6.0,92,0.00,,---,0.00,VWS V14.00,2013-02-03 06:17:00,
2013-02-03 01:22:00,38.2,36.1,30.06,West,259,3.0,6.0,92,0.00,,---,0.00,VWS V14.00,2013-02-03 06:22:00,
2013-02-03 01:27:00,38.2,36.1,30.06,NW,304,6.0,9.0,92,0.00,,---,0.00,VWS V14.00,2013-02-03 06:27:00,
2013-02-03 01:32:00,38.2,36.1,30.06,WSW,252,7.0,8.0,92,0.00,,---,0.00,VWS V14.00,2013-02-03 06:32:00,
2013-02-03 01:37:00,38.1,36.3,30.06,NW,311,2.0,15.0,93,0.00,,---,0.00,VWS V14.00,2013-02-03 06:37:00,
2013-02-03 01:42:00,38.1,36.0,30.06,West,261,6.0,8.0,92,0.00,,---,0.00,VWS V14.00,2013-02-03 06:42:00,
2013-02-03 01:47:00,38.1,36.3,30.05,WSW,252,5.0,11.0,93,0.00,,---,0.00,VWS V14.00,2013-02-03 06:47:00,
2013-02-03 01:52:00,38.0,35.9,30.05,West,269,6.0,8.0,92,0.00,,---,0.00,VWS V14.00,2013-02-03 06:52:00,
2013-02-03 01:57:00,37.9,35.8,30.05,WSW,244,5.0,13.0,92,0.00,,---,0.00,VWS V14.00,2013-02-03 06:57:00,
2013-02-03 02:02:00,37.8,35.7,30.05,WSW,252,4.0,11.0,92,0.00,,---,0.00,VWS V14.00,2013-02-03 07:02:00,
2013-02-03 02:07:00,37.8,35.7,30.05,West,259,5.0,7.0,92,0.00,,---,0.00,VWS V14.00,2013-02-03 07:07:00,
2013-02-03 02:12:00,37.8,35.7,30.05,West,259,0.0,6.0,92,0.00,,---,0.00,VWS V14.00,2013-02-03 07:12:00,
2013-02-03 02:17:00,37.7,35.6,30.04,West,265,4.0,5.0,92,0.00,,---,0.00,VWS V14.00,2013-02-03 07:17:00,
2013-02-03 02:22:00,37.6,35.5,30.04,WSW,258,9.0,9.0,92,0.00,,---,0.00,VWS V14.00,2013-02-03 07:22:00,
2013-02-03 02:27:00,37.5,35.4,30.04,West,273,5.0,6.0,92,0.00,,---,0.00,VWS V14.00,2013-02-03 07:27:00,
2013-02-03 02:32:00,37.4,35.6,30.03,West,262,6.0,8.0,93,0.00,,---,0.00,VWS V14.00,2013-02-03 07:32:00,
2013-02-03 02:37:00,37.2,35.4,30.03,West,259,4.0,5.0,93,0.00,,---,0.00,VWS V14.00,2013-02-03 07:37:00,
2013-02-03 02:42:00,37.1,35.3,30.03,West,263,5.0,6.0,93,0.00,,---,0.00,VWS V14.00,2013-02-03 07:42:00,
2013-02-03 02:47:00,37.0,35.2,30.03,WSW,249,6.0,10.0,93,0.00,,---,0.00,VWS V14.00,2013-02-03 07:47:00,
2013-02-03 02:52:00,36.9,35.1,30.03,West,275,5.0,10.0,93,0.00,,---,0.00,VWS V14.00,2013-02-03 07:52:00,
2013-02-03 02:57:00,36.8,35.0,30.03,West,259,6.0,8.0,93,0.00,,---,0.00,VWS V14.00,2013-02-03 07:57:00,
2013-02-03 03:02:00,36.7,34.9,30.03,West,261,6.0,8.0,93,0.00,,---,0.00,VWS V14.00,2013-02-03 08:02:00,
2013-02-03 03:07:00,36.6,34.8,30.03,WNW,299,4.0,8.0,93,0.00,,---,0.00,VWS V14.00,2013-02-03 08:07:00,
2013-02-03 03:12:00,36.4,34.6,30.02,West,276,3.0,4.0,93,0.00,,---,0.00,VWS V14.00,2013-02-03 08:12:00,
2013-02-03 03:17:00,36.3,34.5,30.02,West,271,2.0,6.0,93,0.00,,---,0.00,VWS V14.00,2013-02-03 08:17:00,
2013-02-03 03:22:00,36.2,34.4,30.02,WSW,242,3.0,6.0,93,0.00,,---,0.00,VWS V14.00,2013-02-03 08:22:00,
2013-02-03 03:27:00,36.1,34.3,30.02,West,264,4.0,6.0,93,0.00,,---,0.00,VWS V14.00,2013-02-03 08:27:00,
2013-02-03 03:32:00,36.1,34.3,30.01,WSW,258,9.0,12.0,93,0.00,,---,0.00,VWS V14.00,2013-02-03 08:32:00,
2013-02-03 03:37:00,36.0,34.2,30.01,West,263,10.0,12.0,93,0.00,,---,0.00,VWS V14.00,2013-02-03 08:37:00,
2013-02-03 03:42:00,36.0,33.9,30.00,WSW,241,9.0,11.0,92,0.00,,---,0.00,VWS V14.00,2013-02-03 08:42:00,
2013-02-03 03:47:00,35.9,33.8,30.01,WSW,244,9.0,14.0,92,0.00,,---,0.00,VWS V14.00,2013-02-03 08:47:00,
2013-02-03 03:52:00,35.9,33.8,30.01,WSW,255,7.0,11.0,92,0.00,,---,0.00,VWS V14.00,2013-02-03 08:52:00,
2013-02-03 03:57:00,35.8,33.7,30.01,West,261,4.0,10.0,92,0.00,,---,0.00,VWS V14.00,2013-02-03 08:57:00,
2013-02-03 04:02:00,35.8,33.4,30.01,WSW,243,10.0,10.0,91,0.00,,---,0.00,VWS V14.00,2013-02-03 09:02:00,
2013-02-03 04:07:00,35.8,33.4,30.01,WSW,247,7.0,11.0,91,0.00,,---,0.00,VWS V14.00,2013-02-03 09:07:00,
2013-02-03 04:12:00,35.9,33.3,30.01,West,270,5.0,8.0,90,0.00,,---,0.00,VWS V14.00,2013-02-03 09:12:00,
2013-02-03 04:17:00,35.9,33.0,30.00,WSW,241,9.0,12.0,89,0.00,,---,0.00,VWS V14.00,2013-02-03 09:17:00,
2013-02-03 04:22:00,35.9,32.7,30.00,West,263,4.0,11.0,88,0.00,,---,0.00,VWS V14.00,2013-02-03 09:22:00,
2013-02-03 04:27:00,36.0,32.8,30.01,WNW,290,7.0,7.0,88,0.00,,---,0.00,VWS V14.00,2013-02-03 09:27:00,
2013-02-03 04:32:00,36.0,32.5,30.01,WSW,241,7.0,8.0,87,0.00,,---,0.00,VWS V14.00,2013-02-03 09:32:00,
2013-02-03 04:37:00,36.1,32.3,30.01,West,279,3.0,9.0,86,0.00,,---,0.00,VWS V14.00,2013-02-03 09:37:00,
2013-02-03 04:42:00,36.1,32.0,30.01,WSW,252,7.0,9.0,85,0.00,,---,0.00,VWS V14.00,2013-02-03 09:42:00,
2013-02-03 04:47:00,36.2,32.1,30.01,WSW,238,6.0,13.0,85,0.00,,---,0.00,VWS V14.00,2013-02-03 09:47:00,
2013-02-03 04:52:00,36.2,31.8,30.01,West,268,2.0,10.0,84,0.00,,---,0.00,VWS V14.00,2013-02-03 09:52:00,
2013-02-03 04:57:00,36.3,31.6,30.01,West,275,3.0,11.0,83,0.00,,---,0.00,VWS V14.00,2013-02-03 09:57:00,
2013-02-03 05:02:00,36.4,31.7,30.01,West,265,4.0,10.0,83,0.00,,---,0.00,VWS V14.00,2013-02-03 10:02:00,
2013-02-03 05:07:00,36.4,31.7,30.01,WSW,253,9.0,9.0,83,0.00,,---,0.00,VWS V14.00,2013-02-03 10:07:00,
2013-02-03 05:12:00,36.2,31.5,30.01,WSW,255,6.0,8.0,83,0.00,,---,0.00,VWS V14.00,2013-02-03 10:12:00,
2013-02-03 05:17:00,36.1,31.7,30.01,West,279,5.0,8.0,84,0.00,,---,0.00,VWS V14.00,2013-02-03 10:17:00,
2013-02-03 05:22:00,35.9,31.5,30.01,West,262,4.0,7.0,84,0.00,,---,0.00,VWS V14.00,2013-02-03 10:22:00,
2013-02-03 05:27:00,35.9,31.2,30.01,NNW,334,4.0,9.0,83,0.00,,---,0.00,VWS V14.00,2013-02-03 10:27:00,
2013-02-03 05:32:00,35.9,31.0,30.01,WSW,254,1.0,3.0,82,0.00,,---,0.00,VWS V14.00,2013-02-03 10:32:00,
2013-02-03 05:37:00,36.0,30.8,30.01,West,262,7.0,11.0,81,0.00,,---,0.00,VWS V14.00,2013-02-03 10:37:00,
2013-02-03 05:42:00,36.2,30.6,30.01,WSW,250,1.0,7.0,80,0.00,,---,0.00,VWS V14.00,2013-02-03 10:42:00,
2013-02-03 05:47:00,36.4,30.5,30.01,West,269,6.0,7.0,79,0.00,,---,0.00,VWS V14.00,2013-02-03 10:47:00,
2013-02-03 05:52:00,36.5,30.6,30.01,NNW,333,3.0,4.0,79,0.00,,---,0.00,VWS V14.00,2013-02-03 10:52:00,
2013-02-03 05:57:00,36.6,30.7,30.01,West,267,5.0,10.0,79,0.00,,---,0.00,VWS V14.00,2013-02-03 10:57:00,
2013-02-03 06:02:00,36.7,30.5,30.01,NW,307,7.0,12.0,78,0.00,,---,0.00,VWS V14.00,2013-02-03 11:02:00,
2013-02-03 06:07:00,36.7,30.5,30.01,WSW,240,1.0,5.0,78,0.00,,---,0.00,VWS V14.00,2013-02-03 11:07:00,
2013-02-03 06:12:00,36.7,32.0,30.01,West,260,9.0,9.0,83,0.00,,---,0.00,VWS V14.00,2013-02-03 11:12:00,
2013-02-03 06:17:00,36.7,30.2,30.01,West,259,8.0,12.0,77,0.00,,---,0.00,VWS V14.00,2013-02-03 11:17:00,
2013-02-03 06:22:00,36.7,30.5,30.02,WSW,245,6.0,9.0,78,0.00,,---,0.00,VWS V14.00,2013-02-03 11:22:00,
2013-02-03 06:27:00,36.5,30.6,30.02,WSW,251,3.0,7.0,79,0.00,,---,0.00,VWS V14.00,2013-02-03 11:27:00,
2013-02-03 06:32:00,36.3,30.4,30.02,WSW,242,6.0,11.0,79,0.00,,---,0.00,VWS V14.00,2013-02-03 11:32:00,
2013-02-03 06:37:00,36.1,30.2,30.02,WSW,250,6.0,8.0,79,0.00,,---,0.00,VWS V14.00,2013-02-03 11:37:00,
2013-02-03 06:42:00,35.9,30.3,30.01,WSW,246,10.0,10.0,80,0.00,,---,0.00,VWS V14.00,2013-02-03 11:42:00,
2013-02-03 06:47:00,35.7,30.5,30.01,SW,232,6.0,6.0,81,0.00,,---,0.00,VWS V14.00,2013-02-03 11:47:00,
2013-02-03 06:52:00,35.4,30.2,30.01,SW,231,4.0,6.0,81,0.00,,---,0.00,VWS V14.00,2013-02-03 11:52:00,
2013-02-03 06:57:00,35.2,30.3,30.01,West,266,7.0,7.0,82,0.00,,---,0.00,VWS V14.00,2013-02-03 11:57:00,
2013-02-03 07:02:00,35.1,30.2,30.01,WSW,247,3.0,7.0,82,0.00,,---,0.00,VWS V14.00,2013-02-03 12:02:00,
2013-02-03 07:07:00,35.1,30.2,30.01,WSW,241,11.0,11.0,82,0.00,,---,0.00,VWS V14.00,2013-02-03 12:07:00,
2013-02-03 07:12:00,35.2,30.3,30.01,SW,232,8.0,10.0,82,0.00,,---,0.00,VWS V14.00,2013-02-03 12:12:00,
2013-02-03 07:17:00,35.2,30.3,30.01,SSW,213,8.0,8.0,82,0.00,,---,0.00,VWS V14.00,2013-02-03 12:17:00,
2013-02-03 07:22:00,35.3,30.4,30.01,WSW,250,5.0,8.0,82,0.00,,---,0.00,VWS V14.00,2013-02-03 12:22:00,
2013-02-03 07:27:00,35.3,30.4,30.01,SW,223,6.0,6.0,82,0.00,,---,0.00,VWS V14.00,2013-02-03 12:27:00,
2013-02-03 07:32:00,35.4,30.2,30.01,WSW,240,6.0,9.0,81,0.00,,---,0.00,VWS V14.00,2013-02-03 12:32:00,
2013-02-03 07:37:00,35.3,30.4,30.01,SW,230,3.0,4.0,82,0.00,,---,0.00,VWS V14.00,2013-02-03 12:37:00,
2013-02-03 07:42:00,35.2,30.3,30.00,SW,228,5.0,5.0,82,0.00,,---,0.00,VWS V14.00,2013-02-03 12:42:00,
2013-02-03 07:47:00,35.0,30.4,30.00,WSW,241,5.0,7.0,83,0.00,,---,0.00,VWS V14.00,2013-02-03 12:47:00,
2013-02-03 07:52:00,34.8,30.2,30.00,WSW,241,1.0,4.0,83,0.00,,---,0.00,VWS V14.00,2013-02-03 12:52:00,
2013-02-03 07:57:00,34.8,30.2,30.01,SW,227,3.0,3.0,83,0.00,,---,0.00,VWS V14.00,2013-02-03 12:57:00,
2013-02-03 08:03:00,34.8,30.5,30.01,WSW,242,4.0,7.0,84,0.00,,---,0.00,VWS V14.00,2013-02-03 13:03:00,
2013-02-03 08:08:00,34.8,30.5,30.01,WSW,239,4.0,4.0,84,0.00,,---,0.00,VWS V14.00,2013-02-03 13:08:00,
2013-02-03 08:13:00,34.9,30.6,30.01,SW,223,1.0,2.0,84,0.00,,---,0.00,VWS V14.00,2013-02-03 13:13:00,
2013-02-03 08:18:00,35.0,30.7,30.01,SW,217,3.0,4.0,84,0.00,,---,0.00,VWS V14.00,2013-02-03 13:18:00,
2013-02-03 08:23:00,35.3,30.7,30.02,WSW,248,7.0,7.0,83,0.00,,---,0.00,VWS V14.00,2013-02-03 13:23:00,
2013-02-03 08:28:00,35.6,31.0,30.02,SW,234,2.0,4.0,83,0.00,,---,0.00,VWS V14.00,2013-02-03 13:28:00,
2013-02-03 08:33:00,35.9,31.2,30.03,West,279,1.0,3.0,83,0.00,,---,0.00,VWS V14.00,2013-02-03 13:33:00,
2013-02-03 08:38:00,36.2,31.2,30.03,WSW,244,8.0,8.0,82,0.00,,---,0.00,VWS V14.00,2013-02-03 13:38:00,
2013-02-03 08:43:00,36.6,31.3,30.02,WSW,237,5.0,7.0,81,0.00,,---,0.00,VWS V14.00,2013-02-03 13:43:00,
2013-02-03 08:48:00,37.1,31.5,30.02,WSW,242,7.0,10.0,80,0.00,,---,0.00,VWS V14.00,2013-02-03 13:48:00,
2013-02-03 08:53:00,37.6,31.7,30.02,SW,236,10.0,13.0,79,0.00,,---,0.00,VWS V14.00,2013-02-03 13:53:00,
2013-02-03 08:58:00,38.0,31.8,30.03,SW,233,12.0,12.0,78,0.00,,---,0.00,VWS V14.00,2013-02-03 13:58:00,
2013-02-03 09:03:00,38.4,32.2,30.02,West,268,9.0,17.0,78,0.00,,---,0.00,VWS V14.00,2013-02-03 14:03:00,
2013-02-03 09:08:00,38.7,32.1,30.02,SSW,210,12.0,12.0,77,0.00,,---,0.00,VWS V14.00,2013-02-03 14:08:00,
2013-02-03 09:13:00,39.0,32.1,30.02,WSW,249,7.0,10.0,76,0.00,,---,0.00,VWS V14.00,2013-02-03 14:13:00,
2013-02-03 09:18:00,39.3,32.7,30.02,SW,225,8.0,11.0,77,0.00,,---,0.00,VWS V14.00,2013-02-03 14:18:00,
2013-02-03 09:23:00,39.5,32.9,30.02,West,271,8.0,12.0,77,0.00,,---,0.00,VWS V14.00,2013-02-03 14:23:00,
2013-02-03 09:28:00,39.9,33.0,30.03,WSW,238,6.0,7.0,76,0.00,,---,0.00,VWS V14.00,2013-02-03 14:28:00,
2013-02-03 09:33:00,40.2,33.2,30.02,WNW,288,3.0,8.0,76,0.00,,---,0.00,VWS V14.00,2013-02-03 14:33:00,
2013-02-03 09:38:00,40.5,33.5,30.02,West,269,2.0,7.0,76,0.00,,---,0.00,VWS V14.00,2013-02-03 14:38:00,
2013-02-03 09:43:00,40.7,33.4,30.01,West,268,4.0,6.0,75,0.00,,---,0.00,VWS V14.00,2013-02-03 14:43:00,
2013-02-03 09:48:00,40.9,33.6,30.01,West,275,3.0,5.0,75,0.00,,---,0.00,VWS V14.00,2013-02-03 14:48:00,
2013-02-03 09:53:00,41.5,35.2,30.01,WSW,242,4.0,6.0,78,0.00,,---,0.00,VWS V14.00,2013-02-03 14:53:00,
2013-02-03 09:58:00,42.0,34.3,30.01,WNW,294,4.0,14.0,74,0.00,,---,0.00,VWS V14.00,2013-02-03 14:58:00,
2013-02-03 10:03:00,42.1,34.1,30.01,West,260,5.0,9.0,73,0.00,,---,0.00,VWS V14.00,2013-02-03 15:03:00,
2013-02-03 10:08:00,42.3,34.3,30.02,West,265,5.0,7.0,73,0.00,,---,0.00,VWS V14.00,2013-02-03 15:08:00,
2013-02-03 10:13:00,42.7,35.0,30.01,WSW,254,7.0,7.0,74,0.00,,---,0.00,VWS V14.00,2013-02-03 15:13:00,
2013-02-03 10:18:00,43.1,35.0,30.01,WNW,283,5.0,8.0,73,0.00,,---,0.00,VWS V14.00,2013-02-03 15:18:00,
2013-02-03 10:23:00,43.3,35.2,30.01,West,259,5.0,10.0,73,0.00,,---,0.00,VWS V14.00,2013-02-03 15:23:00,
2013-02-03 10:28:00,43.7,36.0,30.01,WSW,253,3.0,12.0,74,0.00,,---,0.00,VWS V14.00,2013-02-03 15:28:00,
2013-02-03 10:33:00,43.9,36.2,30.01,West,264,6.0,15.0,74,0.00,,---,0.00,VWS V14.00,2013-02-03 15:33:00,
2013-02-03 10:38:00,44.3,36.2,30.00,WSW,249,10.0,11.0,73,0.00,,---,0.00,VWS V14.00,2013-02-03 15:38:00,
2013-02-03 10:43:00,44.4,36.0,30.00,West,263,8.0,13.0,72,0.00,,---,0.00,VWS V14.00,2013-02-03 15:43:00,
2013-02-03 10:48:00,44.5,36.0,30.00,NNW,339,4.0,6.0,72,0.00,,---,0.00,VWS V14.00,2013-02-03 15:48:00,
2013-02-03 10:53:00,44.6,35.8,30.00,West,261,7.0,8.0,71,0.00,,---,0.00,VWS V14.00,2013-02-03 15:53:00,
2013-02-03 10:58:00,44.8,36.0,30.00,WSW,250,11.0,11.0,71,0.00,,---,0.00,VWS V14.00,2013-02-03 15:58:00,
2013-02-03 11:03:00,45.4,37.6,29.99,WNW,300,3.0,11.0,74,0.00,,---,0.00,VWS V14.00,2013-02-03 16:03:00,
2013-02-03 11:08:00,45.9,37.0,30.00,West,261,8.0,8.0,71,0.00,,---,0.00,VWS V14.00,2013-02-03 16:08:00,
2013-02-03 11:13:00,46.0,36.0,29.99,West,269,7.0,9.0,68,0.00,,---,0.00,VWS V14.00,2013-02-03 16:13:00,
2013-02-03 11:18:00,45.8,36.6,29.99,WSW,248,9.0,13.0,70,0.00,,---,0.00,VWS V14.00,2013-02-03 16:18:00,
2013-02-03 11:23:00,46.0,36.4,29.99,WSW,253,7.0,11.0,69,0.00,,---,0.00,VWS V14.00,2013-02-03 16:23:00,
2013-02-03 11:28:00,46.2,36.2,29.99,West,266,11.0,12.0,68,0.00,,---,0.00,VWS V14.00,2013-02-03 16:28:00,
2013-02-03 11:33:00,46.5,36.9,29.99,West,275,4.0,7.0,69,0.00,,---,0.00,VWS V14.00,2013-02-03 16:33:00,
2013-02-03 11:38:00,46.8,37.2,29.98,WSW,238,3.0,7.0,69,0.00,,---,0.00,VWS V14.00,2013-02-03 16:38:00,
2013-02-03 11:43:00,47.3,37.3,29.98,WSW,242,4.0,6.0,68,0.00,,---,0.00,VWS V14.00,2013-02-03 16:43:00,
2013-02-03 11:48:00,47.3,37.3,29.98,NW,316,2.0,9.0,68,0.00,,---,0.00,VWS V14.00,2013-02-03 16:48:00,
2013-02-03 11:53:00,47.4,37.0,29.98,WSW,246,7.0,9.0,67,0.00,,---,0.00,VWS V14.00,2013-02-03 16:53:00,
2013-02-03 11:58:00,47.6,37.6,29.97,NW,319,3.0,8.0,68,0.00,,---,0.00,VWS V14.00,2013-02-03 16:58:00,
2013-02-03 12:03:00,48.1,38.0,29.97,West,268,1.0,11.0,68,0.00,,---,0.00,VWS V14.00,2013-02-03 17:03:00,
2013-02-03 12:08:00,48.2,37.8,29.97,WSW,250,9.0,10.0,67,0.00,,---,0.00,VWS V14.00,2013-02-03 17:08:00,
2013-02-03 12:13:00,48.5,37.7,29.96,West,259,0.0,5.0,66,0.00,,---,0.00,VWS V14.00,2013-02-03 17:13:00,
2013-02-03 12:18:00,48.6,38.2,29.96,West,268,11.0,11.0,67,0.00,,---,0.00,VWS V14.00,2013-02-03 17:18:00,
2013-02-03 12:23:00,48.3,37.5,29.95,West,270,3.0,4.0,66,0.00,,---,0.00,VWS V14.00,2013-02-03 17:23:00,
2013-02-03 12:28:00,47.8,37.4,29.95,NW,325,5.0,8.0,67,0.00,,---,0.00,VWS V14.00,2013-02-03 17:28:00,
2013-02-03 12:33:00,47.5,37.1,29.95,West,280,4.0,4.0,67,0.00,,---,0.00,VWS V14.00,2013-02-03 17:33:00,
2013-02-03 12:38:00,47.6,37.6,29.95,WSW,252,5.0,15.0,68,0.00,,---,0.00,VWS V14.00,2013-02-03 17:38:00,
2013-02-03 12:43:00,47.9,37.9,29.94,NNW,335,7.0,10.0,68,0.00,,---,0.00,VWS V14.00,2013-02-03 17:43:00,
2013-02-03 12:48:00,48.3,37.9,29.94,WSW,250,6.0,8.0,67,0.00,,---,0.00,VWS V14.00,2013-02-03 17:48:00,
2013-02-03 12:53:00,48.7,38.2,29.94,WSW,240,5.0,12.0,67,0.00,,---,0.00,VWS V14.00,2013-02-03 17:53:00,
2013-02-03 12:58:00,49.1,39.0,29.94,SW,225,8.0,8.0,68,0.00,,---,0.00,VWS V14.00,2013-02-03 17:58:00,
2013-02-03 13:03:00,49.7,38.8,29.93,WNW,302,4.0,7.0,66,0.00,,---,0.00,VWS V14.00,2013-02-03 18:03:00,
2013-02-03 13:08:00,50.3,38.2,29.93,WSW,237,4.0,6.0,63,0.00,,---,0.00,VWS V14.00,2013-02-03 18:08:00,
2013-02-03 13:13:00,50.4,37.9,29.93,WSW,250,5.0,9.0,62,0.00,,---,0.00,VWS V14.00,2013-02-03 18:13:00,
2013-02-03 13:18:00,50.2,37.7,29.92,WSW,252,8.0,8.0,62,0.00,,---,0.00,VWS V14.00,2013-02-03 18:18:00,
2013-02-03 13:23:00,50.2,37.3,29.92,WSW,254,6.0,6.0,61,0.00,,---,0.00,VWS V14.00,2013-02-03 18:23:00,
2013-02-03 13:28:00,50.2,38.5,29.92,West,268,5.0,8.0,64,0.00,,---,0.00,VWS V14.00,2013-02-03 18:28:00,
2013-02-03 13:33:00,50.6,37.7,29.91,WSW,252,12.0,12.0,61,0.00,,---,0.00,VWS V14.00,2013-02-03 18:33:00,
2013-02-03 13:38:00,51.0,38.0,29.91,NW,314,0.0,4.0,61,0.00,,---,0.00,VWS V14.00,2013-02-03 18:38:00,
2013-02-03 13:43:00,51.7,37.8,29.91,WSW,249,4.0,8.0,59,0.00,,---,0.00,VWS V14.00,2013-02-03 18:43:00,
2013-02-03 13:48:00,52.5,37.3,29.91,WSW,241,6.0,8.0,56,0.00,,---,0.00,VWS V14.00,2013-02-03 18:48:00,
2013-02-03 13:53:00,52.8,36.2,29.90,SW,232,5.0,6.0,53,0.00,,---,0.00,VWS V14.00,2013-02-03 18:53:00,
2013-02-03 13:58:00,53.1,36.0,29.91,West,259,1.0,7.0,52,0.00,,---,0.00,VWS V14.00,2013-02-03 18:58:00,
2013-02-03 14:03:00,53.5,36.3,29.90,West,262,12.0,14.0,52,0.00,,---,0.00,VWS V14.00,2013-02-03 19:03:00,
2013-02-03 14:08:00,53.8,34.1,29.90,West,267,6.0,15.0,47,0.00,,---,0.00,VWS V14.00,2013-02-03 19:08:00,
2013-02-03 14:13:00,54.2,29.8,29.90,WSW,248,6.0,15.0,39,0.00,,---,0.00,VWS V14.00,2013-02-03 19:13:00,
2013-02-03 14:18:00,54.3,27.2,29.90,WNW,301,9.0,9.0,35,0.00,,---,0.00,VWS V14.00,2013-02-03 19:18:00,
2013-02-03 14:23:00,54.6,28.9,29.90,West,268,4.0,6.0,37,0.00,,---,0.00,VWS V14.00,2013-02-03 19:23:00,
2013-02-03 14:28:00,54.8,29.0,29.90,NW,317,8.0,12.0,37,0.00,,---,0.00,VWS V14.00,2013-02-03 19:28:00,
2013-02-03 14:33:00,54.8,27.7,29.90,WSW,258,4.0,6.0,35,0.00,,---,0.00,VWS V14.00,2013-02-03 19:33:00,
2013-02-03 14:38:00,54.8,27.0,29.90,West,281,6.0,10.0,34,0.00,,---,0.00,VWS V14.00,2013-02-03 19:38:00,
2013-02-03 14:43:00,54.6,27.5,29.91,West,259,18.0,18.0,35,0.00,,---,0.00,VWS V14.00,2013-02-03 19:43:00,
2013-02-03 14:48:00,54.7,26.9,29.91,West,259,13.0,13.0,34,0.00,,---,0.00,VWS V14.00,2013-02-03 19:48:00,
2013-02-03 14:53:00,54.6,26.8,29.91,WSW,257,13.0,15.0,34,0.00,,---,0.00,VWS V14.00,2013-02-03 19:53:00,
2013-02-03 14:58:00,54.3,24.3,29.91,NNW,348,4.0,9.0,31,0.00,,---,0.00,VWS V14.00,2013-02-03 19:58:00,
2013-02-03 15:03:00,54.2,25.7,29.91,NW,324,2.0,6.0,33,0.00,,---,0.00,VWS V14.00,2013-02-03 20:03:00,
2013-02-03 15:08:00,54.3,24.3,29.91,NW,325,6.0,18.0,31,0.00,,---,0.00,VWS V14.00,2013-02-03 20:08:00,
2013-02-03 15:13:00,54.1,24.2,29.91,WSW,248,5.0,11.0,31,0.00,,---,0.00,VWS V14.00,2013-02-03 20:13:00,
2013-02-03 15:18:00,54.1,24.2,29.91,WNW,290,2.0,6.0,31,0.00,,---,0.00,VWS V14.00,2013-02-03 20:18:00,
2013-02-03 15:23:00,54.1,24.2,29.91,NNW,329,3.0,10.0,31,0.00,,---,0.00,VWS V14.00,2013-02-03 20:23:00,
2013-02-03 15:28:00,53.9,24.7,29.91,WSW,254,9.0,13.0,32,0.00,,---,0.00,VWS V14.00,2013-02-03 20:28:00,
2013-02-03 15:33:00,53.9,24.0,29.91,WSW,242,9.0,16.0,31,0.00,,---,0.00,VWS V14.00,2013-02-03 20:33:00,
2013-02-03 15:38:00,53.9,24.0,29.92,WNW,292,7.0,12.0,31,0.00,,---,0.00,VWS V14.00,2013-02-03 20:38:00,
2013-02-03 15:43:00,53.6,24.5,29.93,WSW,242,7.0,13.0,32,0.00,,---,0.00,VWS V14.00,2013-02-03 20:43:00,
2013-02-03 15:48:00,53.3,23.5,29.93,West,265,17.0,17.0,31,0.00,,---,0.00,VWS V14.00,2013-02-03 20:48:00,
2013-02-03 15:53:00,52.8,23.0,29.93,WNW,296,1.0,6.0,31,0.00,,---,0.00,VWS V14.00,2013-02-03 20:53:00,
2013-02-03 15:58:00,52.4,23.4,29.93,WSW,241,10.0,19.0,32,0.00,,---,0.00,VWS V14.00,2013-02-03 20:58:00,
2013-02-03 16:03:00,52.2,24.0,29.93,WSW,250,10.0,16.0,33,0.00,,---,0.00,VWS V14.00,2013-02-03 21:03:00,
2013-02-03 16:08:00,52.0,23.8,29.93,NNW,343,5.0,6.0,33,0.00,,---,0.00,VWS V14.00,2013-02-03 21:08:00,
2013-02-03 16:13:00,51.9,23.7,29.93,West,279,7.0,8.0,33,0.00,,---,0.00,VWS V14.00,2013-02-03 21:13:00,
2013-02-03 16:18:00,51.7,23.5,29.94,West,274,7.0,16.0,33,0.00,,---,0.00,VWS V14.00,2013-02-03 21:18:00,
2013-02-03 16:23:00,51.5,24.1,29.94,SW,234,11.0,12.0,34,0.00,,---,0.00,VWS V14.00,2013-02-03 21:23:00,
2013-02-03 16:28:00,51.4,24.0,29.94,WNW,282,15.0,15.0,34,0.00,,---,0.00,VWS V14.00,2013-02-03 21:28:00,
2013-02-03 16:33:00,51.1,23.7,29.95,WNW,292,6.0,13.0,34,0.00,,---,0.00,VWS V14.00,2013-02-03 21:33:00,
2013-02-03 16:38:00,50.9,24.2,29.95,NNW,338,5.0,9.0,35,0.00,,---,0.00,VWS V14.00,2013-02-03 21:38:00,
2013-02-03 16:43:00,50.7,24.1,29.95,NNW,346,3.0,14.0,35,0.00,,---,0.00,VWS V14.00,2013-02-03 21:43:00,
2013-02-03 16:48:00,50.4,24.5,29.95,West,259,10.0,11.0,36,0.00,,---,0.00,VWS V14.00,2013-02-03 21:48:00,
2013-02-03 16:53:00,50.1,24.9,29.95,WNW,298,1.0,10.0,37,0.00,,---,0.00,VWS V14.00,2013-02-03 21:53:00,
2013-02-03 16:58:00,49.9,25.3,29.96,West,274,3.0,6.0,38,0.00,,---,0.00,VWS V14.00,2013-02-03 21:58:00,
2013-02-03 17:03:00,49.7,25.1,29.96,WNW,296,7.0,7.0,38,0.00,,---,0.00,VWS V14.00,2013-02-03 22:03:00,
2013-02-03 17:08:00,49.5,25.6,29.96,NNW,344,2.0,5.0,39,0.00,,---,0.00,VWS V14.00,2013-02-03 22:08:00,
2013-02-03 17:13:00,49.3,25.4,29.96,West,273,4.0,12.0,39,0.00,,---,0.00,VWS V14.00,2013-02-03 22:13:00,
2013-02-03 17:18:00,49.1,26.4,29.97,NNW,327,4.0,4.0,41,0.00,,---,0.00,VWS V14.00,2013-02-03 22:18:00,
2013-02-03 17:23:00,48.9,25.7,29.97,NW,319,7.0,7.0,40,0.00,,---,0.00,VWS V14.00,2013-02-03 22:23:00,
2013-02-03 17:28:00,48.7,26.1,29.97,NW,311,0.0,0.0,41,0.00,,---,0.00,VWS V14.00,2013-02-03 22:28:00,
2013-02-03 17:33:00,48.5,25.9,29.98,NNW,340,5.0,6.0,41,0.00,,---,0.00,VWS V14.00,2013-02-03 22:33:00,
2013-02-03 17:38:00,48.3,26.3,29.98,NNW,345,0.0,1.0,42,0.00,,---,0.00,VWS V14.00,2013-02-03 22:38:00,
2013-02-03 17:43:00,48.0,26.6,29.98,NW,325,0.0,4.0,43,0.00,,---,0.00,VWS V14.00,2013-02-03 22:43:00,
2013-02-03 17:48:00,47.8,26.4,29.98,North,350,0.0,3.0,43,0.00,,---,0.00,VWS V14.00,2013-02-03 22:48:00,
2013-02-03 17:53:00,47.6,26.2,29.98,NNW,338,3.0,5.0,43,0.00,,---,0.00,VWS V14.00,2013-02-03 22:53:00,
2013-02-03 17:58:00,47.4,26.6,29.98,WNW,297,4.0,4.0,44,0.00,,---,0.00,VWS V14.00,2013-02-03 22:58:00,
2013-02-03 18:03:00,47.2,26.4,29.98,NNW,346,0.0,5.0,44,0.00,,---,0.00,VWS V14.00,2013-02-03 23:03:00,
2013-02-03 18:08:00,47.1,26.9,29.98,NNW,336,3.0,3.0,45,0.00,,---,0.00,VWS V14.00,2013-02-03 23:08:00,
2013-02-03 18:13:00,46.8,26.6,29.99,NNW,336,2.0,3.0,45,0.00,,---,0.00,VWS V14.00,2013-02-03 23:13:00,
2013-02-03 18:18:00,46.5,26.3,29.99,NNW,347,0.0,1.0,45,0.00,,---,0.00,VWS V14.00,2013-02-03 23:18:00,
2013-02-03 18:23:00,46.3,26.7,29.99,NNW,346,0.0,0.0,46,0.00,,---,0.00,VWS V14.00,2013-02-03 23:23:00,
2013-02-03 18:28:00,46.0,26.9,29.99,North,360,1.0,2.0,47,0.00,,---,0.00,VWS V14.00,2013-02-03 23:28:00,
2013-02-03 18:33:00,45.7,27.1,29.99,NW,304,0.0,1.0,48,0.00,,---,0.00,VWS V14.00,2013-02-03 23:33:00,
2013-02-03 18:38:00,45.4,27.4,29.99,NW,307,1.0,3.0,49,0.00,,---,0.00,VWS V14.00,2013-02-03 23:38:00,
2013-02-03 18:43:00,45.2,27.2,29.99,NNW,338,0.0,0.0,49,0.00,,---,0.00,VWS V14.00,2013-02-03 23:43:00,
2013-02-03 18:48:00,44.9,27.4,29.99,NNW,329,0.0,0.0,50,0.00,,---,0.00,VWS V14.00,2013-02-03 23:48:00,
2013-02-03 18:53:00,44.7,27.2,29.99,NW,316,1.0,3.0,50,0.00,,---,0.00,VWS V14.00,2013-02-03 23:53:00,
2013-02-03 18:58:00,44.6,26.6,29.99,WNW,303,0.0,2.0,49,0.00,,---,0.00,VWS V14.00,2013-02-03 23:58:00,
2013-02-03 19:03:00,44.5,26.5,29.99,NNW,344,0.0,0.0,49,0.00,,---,0.00,VWS V14.00,2013-02-04 00:03:00,
2013-02-03 19:08:00,44.4,26.9,30.00,NNW,344,0.0,0.0,50,0.00,,---,0.00,VWS V14.00,2013-02-04 00:08:00,
2013-02-03 19:13:00,44.2,27.2,30.00,WNW,284,1.0,6.0,51,0.00,,---,0.00,VWS V14.00,2013-02-04 00:13:00,
2013-02-03 19:18:00,44.0,27.0,30.00,NNW,333,0.0,4.0,51,0.00,,---,0.00,VWS V14.00,2013-02-04 00:18:00,
2013-02-03 19:23:00,44.0,26.6,30.00,NNW,329,0.0,5.0,50,0.00,,---,0.00,VWS V14.00,2013-02-04 00:23:00,
2013-02-03 19:28:00,44.0,26.6,30.00,NW,323,1.0,1.0,50,0.00,,---,0.00,VWS V14.00,2013-02-04 00:28:00,
2013-02-03 19:33:00,44.0,27.0,30.00,NW,308,5.0,5.0,51,0.00,,---,0.00,VWS V14.00,2013-02-04 00:33:00,
2013-02-03 19:38:00,43.8,27.3,30.00,West,267,1.0,4.0,52,0.00,,---,0.00,VWS V14.00,2013-02-04 00:38:00,
2013-02-03 19:43:00,43.6,27.1,30.01,West,273,1.0,3.0,52,0.00,,---,0.00,VWS V14.00,2013-02-04 00:43:00,
2013-02-03 19:48:00,43.4,26.5,30.01,WNW,292,3.0,4.0,51,0.00,,---,0.00,VWS V14.00,2013-02-04 00:48:00,
2013-02-03 19:53:00,43.4,27.0,30.01,WNW,284,0.0,3.0,52,0.00,,---,0.00,VWS V14.00,2013-02-04 00:53:00,
2013-02-03 19:58:00,43.4,27.0,30.01,West,275,0.0,2.0,52,0.00,,---,0.00,VWS V14.00,2013-02-04 00:58:00,
2013-02-03 20:03:00,43.2,26.8,30.01,West,271,0.0,0.0,52,0.00,,---,0.00,VWS V14.00,2013-02-04 01:03:00,
2013-02-03 20:08:00,43.1,26.7,30.02,WNW,302,4.0,6.0,52,0.00,,---,0.00,VWS V14.00,2013-02-04 01:08:00,
2013-02-03 20:13:00,43.0,26.6,30.02,WNW,300,0.0,0.0,52,0.00,,---,0.00,VWS V14.00,2013-02-04 01:13:00,
2013-02-03 20:18:00,42.9,26.5,30.02,West,275,0.0,4.0,52,0.00,,---,0.00,VWS V14.00,2013-02-04 01:18:00,
2013-02-03 20:23:00,42.8,26.9,30.02,WNW,296,6.0,6.0,53,0.00,,---,0.00,VWS V14.00,2013-02-04 01:23:00,
2013-02-03 20:28:00,42.6,26.2,30.02,NW,312,2.0,2.0,52,0.00,,---,0.00,VWS V14.00,2013-02-04 01:28:00,
2013-02-03 20:33:00,42.4,27.0,30.02,WNW,301,0.0,0.0,54,0.00,,---,0.00,VWS V14.00,2013-02-04 01:33:00,
2013-02-03 20:38:00,42.1,26.7,30.02,WNW,303,0.0,2.0,54,0.00,,---,0.00,VWS V14.00,2013-02-04 01:38:00,
2013-02-03 20:43:00,41.8,26.8,30.02,NW,318,0.0,4.0,55,0.00,,---,0.00,VWS V14.00,2013-02-04 01:43:00,
2013-02-03 20:48:00,41.6,26.6,30.02,NW,318,0.0,0.0,55,0.00,,---,0.00,VWS V14.00,2013-02-04 01:48:00,
2013-02-03 20:53:00,41.3,26.4,30.02,NW,318,0.0,0.0,55,0.00,,---,0.00,VWS V14.00,2013-02-04 01:53:00,
2013-02-03 20:58:00,40.9,26.9,30.02,NW,318,0.0,0.0,57,0.00,,---,0.00,VWS V14.00,2013-02-04 01:58:00,
2013-02-03 21:03:00,40.5,26.9,30.03,NW,318,0.0,0.0,58,0.00,,---,0.00,VWS V14.00,2013-02-04 02:03:00,
2013-02-03 21:08:00,40.0,26.8,30.03,NW,318,0.0,0.0,59,0.00,,---,0.00,VWS V14.00,2013-02-04 02:08:00,
2013-02-03 21:13:00,39.6,26.5,30.03,NW,318,0.0,0.0,59,0.00,,---,0.00,VWS V14.00,2013-02-04 02:13:00,
2013-02-03 21:18:00,39.2,26.5,30.03,NW,318,0.0,1.0,60,0.00,,---,0.00,VWS V14.00,2013-02-04 02:18:00,
2013-02-03 21:23:00,38.8,26.5,30.03,NW,318,0.0,0.0,61,0.00,,---,0.00,VWS V14.00,2013-02-04 02:23:00,
2013-02-03 21:28:00,38.7,26.4,30.03,NW,323,2.0,4.0,61,0.00,,---,0.00,VWS V14.00,2013-02-04 02:28:00,
2013-02-03 21:33:00,38.5,27.0,30.03,NW,323,0.0,0.0,63,0.00,,---,0.00,VWS V14.00,2013-02-04 02:33:00,
2013-02-03 21:38:00,38.2,26.7,30.02,NNW,330,3.0,4.0,63,0.00,,---,0.00,VWS V14.00,2013-02-04 02:38:00,
2013-02-03 21:43:00,38.1,27.4,30.03,WNW,298,0.0,0.0,65,0.00,,---,0.00,VWS V14.00,2013-02-04 02:43:00,
2013-02-03 21:48:00,37.9,26.8,30.02,WNW,298,0.0,0.0,64,0.00,,---,0.00,VWS V14.00,2013-02-04 02:48:00,
2013-02-03 21:53:00,38.0,26.9,30.03,NW,309,2.0,3.0,64,0.00,,---,0.00,VWS V14.00,2013-02-04 02:53:00,
2013-02-03 21:58:00,38.1,26.2,30.02,NW,309,1.0,1.0,62,0.00,,---,0.00,VWS V14.00,2013-02-04 02:58:00,
2013-02-03 22:03:00,38.3,26.4,30.02,NW,308,0.0,0.0,62,0.00,,---,0.00,VWS V14.00,2013-02-04 03:03:00,
2013-02-03 22:08:00,38.3,26.4,30.02,West,274,1.0,3.0,62,0.00,,---,0.00,VWS V14.00,2013-02-04 03:08:00,
2013-02-03 22:13:00,38.3,26.0,30.03,West,276,0.0,0.0,61,0.00,,---,0.00,VWS V14.00,2013-02-04 03:13:00,
2013-02-03 22:18:00,38.3,26.0,30.03,West,276,0.0,0.0,61,0.00,,---,0.00,VWS V14.00,2013-02-04 03:18:00,
2013-02-03 22:23:00,38.3,25.6,30.02,West,276,0.0,0.0,60,0.00,,---,0.00,VWS V14.00,2013-02-04 03:23:00,
2013-02-03 22:28:00,38.3,26.0,30.02,NW,309,0.0,3.0,61,0.00,,---,0.00,VWS V14.00,2013-02-04 03:28:00,
2013-02-03 22:33:00,38.3,26.0,30.02,NNW,331,0.0,0.0,61,0.00,,---,0.00,VWS V14.00,2013-02-04 03:33:00,
2013-02-03 22:38:00,38.3,25.6,30.03,NNW,331,0.0,0.0,60,0.00,,---,0.00,VWS V14.00,2013-02-04 03:38:00,
2013-02-03 22:43:00,38.1,26.2,30.03,NNW,331,0.0,0.0,62,0.00,,---,0.00,VWS V14.00,2013-02-04 03:43:00,
2013-02-03 22:48:00,37.9,25.7,30.03,NNW,331,0.0,0.0,61,0.00,,---,0.00,VWS V14.00,2013-02-04 03:48:00,
2013-02-03 22:53:00,37.7,25.9,30.04,NNW,331,0.0,0.0,62,0.00,,---,0.00,VWS V14.00,2013-02-04 03:53:00,
2013-02-03 22:58:00,37.4,25.6,30.04,NNW,331,0.0,0.0,62,0.00,,---,0.00,VWS V14.00,2013-02-04 03:58:00,
2013-02-03 23:03:00,37.1,25.3,30.04,NNW,331,0.0,0.0,62,0.00,,---,0.00,VWS V14.00,2013-02-04 04:03:00,
2013-02-03 23:08:00,36.8,25.8,30.04,NNW,331,0.0,1.0,64,0.00,,---,0.00,VWS V14.00,2013-02-04 04:08:00,
2013-02-03 23:13:00,36.6,26.0,30.04,NNW,331,0.0,0.0,65,0.00,,---,0.00,VWS V14.00,2013-02-04 04:13:00,
2013-02-03 23:18:00,36.3,25.7,30.04,NNW,331,0.0,0.0,65,0.00,,---,0.00,VWS V14.00,2013-02-04 04:18:00,
2013-02-03 23:23:00,36.1,25.1,30.04,NNW,331,0.0,0.0,64,0.00,,---,0.00,VWS V14.00,2013-02-04 04:23:00,
2013-02-03 23:28:00,35.8,25.9,30.04,NNW,331,0.0,0.0,67,0.00,,---,0.00,VWS V14.00,2013-02-04 04:28:00,
2013-02-03 23:33:00,35.5,25.6,30.04,NNW,331,0.0,0.0,67,0.00,,---,0.00,VWS V14.00,2013-02-04 04:33:00,
2013-02-03 23:38:00,35.3,26.2,30.04,NNW,331,0.0,0.0,69,0.00,,---,0.00,VWS V14.00,2013-02-04 04:38:00,
2013-02-03 23:43:00,35.0,25.9,30.04,NNW,331,0.0,0.0,69,0.00,,---,0.00,VWS V14.00,2013-02-04 04:43:00,
2013-02-03 23:48:00,34.8,26.0,30.05,NNW,331,0.0,0.0,70,0.00,,---,0.00,VWS V14.00,2013-02-04 04:48:00,
2013-02-03 23:53:00,34.6,25.8,30.05,NNW,331,0.0,0.0,70,0.00,,---,0.00,VWS V14.00,2013-02-04 04:53:00,
2013-02-03 23:58:00,34.4,25.6,30.05,NNW,331,0.0,0.0,70,0.00,,---,0.00,VWS V14.00,2013-02-04 04:58:00,